Regional Weather Roundup
Issued by NWS Wakefield, VA

Home | Current Version | Previous Version | Graphics & Text | Print | Product List | Glossary On
Versions: 1 2 3 4 5 6 7 8 9 10 11 12 13 14 15 16 17 18 19 20 21 22 23 24 25 26 27 28 29 30 31 32 33 34 35 36 37 38 39 40 41 42 43 44 45 46 47 48 49 50
000
ASUS41 KAKQ 221210
RWRAKQ

REGIONAL WEATHER ROUNDUP
NATIONAL WEATHER SERVICE WAKEFIELD VA
800 AM EDT TUE JUL 22 2014

Note: "fair" indicates few or no clouds below 12,000 feet with no
significant weather and/or obstructions to visibility. * = Denotes
station may not report precipitation (e.g., rain,snow,etc.),
thunder or fog.

VAZ042-051-052>054-056-221300-
NORTHERN VIRGINIA

CITY           SKY/WX    TMP DP  RH WIND       PRES   REMARKS
WASH NATIONAL  PTSUNNY   76  69  79 S6        30.20R
DULLES         CLOUDY    72  69  90 S5        30.20R
FORT BELVOIR   CLOUDY    74  71  90 SE6       30.21R
QUANTICO       CLOUDY    74  70  87 CALM      30.21R
FREDERICKSBRG* CLOUDY    73  73 100 CALM      30.19R
STAFFORD*      CLOUDY    72  72 100 CALM      30.24R
WARRENTON      CLOUDY    73  73 100 SE3       30.20R FOG
CULPEPER*      CLOUDY   N/A N/A N/A CALM      30.20R FOG
MANASSAS*      CLOUDY    72  70  94 S5        30.20R FOG
LEESBURG*      CLOUDY    73  73 100 CALM      30.21R
WINCHESTER     SUNNY     70  70 100 CALM      30.19R
$$

VAZ048-049-060>072-079>083-221300-
CENTRAL AND SOUTH CENTRAL VIRGINIA...AND NORTH CENTRAL NORTH CAROLINA

CITY           SKY/WX    TMP DP  RH WIND       PRES   REMARKS
RICHMOND       PTSUNNY   73  70  90 CALM      30.19R FOG
CHESTERFIELD*  CLOUDY    70  61  73 CALM      30.21R VSB 1/2
HANOVER        FOG       71  70  96 CALM      30.21R VSB 1/2
TAPPAHANNOCK*  MOSUNNY   73  69  87 CALM      30.20R
CHARLOTTSVILLE CLOUDY    73  71  93 S5        30.20R
ORANGE*        CLOUDY    72  70  94 CALM      30.21R
LOUISA*        CLOUDY    72  70  94 CALM      30.20R FOG
FARMVILLE*     CLOUDY    73  72  94 CALM      30.18R
SOUTH HILL*    CLOUDY    73  73 100 NE3       30.24R
ROANOKE RAPIDS CLOUDY    63  63 100 NE3       30.18R FOG
RALEIGH        CLOUDY    73  69  87 E3        30.18R FOG
$$

VAZ088>098-221300-
SOUTHEAST VIRGINIA

CITY           SKY/WX    TMP DP  RH WIND       PRES   REMARKS
NORFOLK        PTSUNNY   76  72  87 E7        30.18R
VIRGINIA BEACH PTSUNNY   76  72  87 E6        30.17R
NORFOLK NAVAL  PTSUNNY   77  72  84 E10       30.19R
WEST POINT*    MOSUNNY   75  71  87 CALM      30.20R
NEWPORT NEWS   PTSUNNY   77  72  84 CALM      30.19R
LANGLEY AFB    PTSUNNY   77  75  94 E9        30.18R
FORT EUSTIS    PTSUNNY   76  76 100 E5        30.17R
WILLIAMSBURG*  MOSUNNY   75  73  94 CALM      30.19R
FRANKLIN*      CLOUDY    72 N/A N/A CALM      30.18R
WAKEFIELD      MOSUNNY   73  70  90 CALM      30.19R
$$

VAZ020-022-025-037-045-221300-
WESTERN AND SOUTHWEST VIRGINIA

CITY           SKY/WX    TMP DP  RH WIND       PRES   REMARKS
STAUNTON*      SUNNY     71  69  93 CALM      30.23R
HOT SPRINGS VA NOT AVBL
LYNCHBURG      PTSUNNY   72  70  93 CALM      30.22R
DANVILLE       FOG       72  70  93 CALM      30.20R VSB 1
MARTINSVILLE   CLOUDY    72  71  98 CALM      30.23R FOG
ROANOKE        CLOUDY    72  70  93 SE5       30.23R
BLACKSBURG     CLOUDY    70  70 100 CALM      30.27R FOG
DUBLIN*        CLOUDY    70  70 100 CALM      30.26R FOG
MARION*        CLOUDY    70  68  94 NE3       30.29R
HILLSVILLE*    MOSUNNY   66  65  96 CALM      30.27R
RICHLANDS*     SUNNY     72  66  81 CALM      30.26R
WISE*          SUNNY     70  64  83 S5        30.27R
ABINGDON*      MOSUNNY   71  67  89 CALM      30.23R
$$

MDZ021>025-VAZ099-100-221300-
SOUTHERN MARYLAND AND THE DELMARVA PENINSULA

CITY           SKY/WX    TMP DP  RH WIND       PRES   REMARKS
PATUXENT RIVER PTSUNNY   74  70  87 CALM      30.19R
BAY BRIDGE APT   N/A     75  72  88 SE3       30.20R
LEONARDTOWN    PTSUNNY   72  68  88 CALM      30.21R
DOVER          PTSUNNY   71  71 100 SW2       30.19R
GEORGETOWN     SUNNY     71  66  84 E9        30.21R
EASTON         SUNNY     73  73 100 CALM      30.24R
CAMBRIDGE      MOSUNNY   72  68  88 CALM      30.20R
SALISBURY      NOT AVBL
OCEAN CITY     SUNNY     72  69  90 E6        30.20R
WALLOPS ISLAND MOSUNNY   74  71  91 E5        30.20R
ACCOMACK*        N/A     72  68  88 E3        30.19R
$$

NCZ012>017-030>032-221300-
EASTERN NORTH CAROLINA

CITY           SKY/WX    TMP DP  RH WIND       PRES   REMARKS
ELIZABETH CITY PTSUNNY   76  72  87 NE8       30.17R
AHOSKIE*       MOSUNNY   72  69  92 CALM      30.18R
EDENTON*       PTSUNNY   74  72  93 NE5       30.16R
CURRITUCK*     PTSUNNY   78  71  81 E6        30.18R
KILL DEVIL HLS PTSUNNY   76  74  92 E6        30.15R
MANTEO         NOT AVBL
CAPE HATTERAS  CLOUDY    76  75  97 E6        30.15R
GOLDSBORO      CLOUDY    73  73  99 NE8       30.14R FOG
WASHINGTON     CLOUDY    73  71  95 CALM      30.15R
GREENVILLE     CLOUDY    73  72  94 E6        30.17R
NEW BERN       CLOUDY    77  73  87 N5        30.14R
WILMINGTON     MOSUNNY   74  73  97 NE7       30.11R
$$

VAZ048-221300-
ELSEWHERE

CITY           SKY/WX    TMP DP  RH WIND       PRES   REMARKS
HARRISBURG PA  CLOUDY    73  67  81 S7        30.19R
BALTIMORE      PTSUNNY   72  69  90 CALM      30.20R
ANNAPOLIS      MOSUNNY   75  69  81 CALM      30.20R
ANDREWS AFB    SUNNY     71  71  99 S3        30.21R
WILMINGTON DE  SUNNY     73  67  81 CALM      30.21R
PHILADELPHIA   MOSUNNY   73  65  75 CALM      30.20R
WILDWOOD NJ*   MOSUNNY   72  64  78 NE3       30.21S
ATLANTIC CITY  SUNNY     70  65  84 CALM      30.21R
HENDERSON NC   CLOUDY    71  70  95 CALM      30.19R FOG
GREENSBORO     CLOUDY    70  70 100 NE6       30.19R FOG
ROCKY MOUNT    CLOUDY    74  71  91 NE7       30.17R
FAYETTEVILLE   CLOUDY    74  73  97 NE3       30.14S FOG
CHARLOTTE      CLOUDY    72  69  90 NE3       30.17R
$$

VAZ100-221300-
MARINE

STATION/POSITION TIME  TEMP    WIND        PRES    WAVE   SWELL
                       AIR SEA DIR/SP/G            HT/PER HT/PER
                 (UTC) (F)     (DEG/KT/KT) (MB)    (FT/S) (FT/S)
44066 TX TWR #4  1200   72 72  360/  2/  4 1022.6R   2/ 7   2/ 7
CAPE MAY NJ      1200   71 74  130/  2/  3 1022.4R
LEWES DE         1200   71 70  150/  2/  2 1022.4R
15NM E FENWICK I 1200   74 75              1022.8R   2/ 8
OCEAN-CITY-INLET 1200   71 70   80/  3/  5 1022.2R
WACHAPREAGUE VA  1200   73 78   60/  7/  9 1022.1R
THOMAS POINT MD  1200   75 79  190/  3/  4 1023.2R
GOOSES REEF MD   1200   75     170/  2/  4 1022.8R
COVE POINT MD    1200   74      90/  4/  4 1022.3R
SOLOMONS ISLAND  1200      81                N/A
BISHOPS HEAD MD  1200   74 78  110/  4/  5 1022.0R
PINEY POINT MD   1200           20/  2/  2   N/A
POTOMAC MD       1200   77     140/  2/  6 1021.4R
CAMBRIDGE MD     1200   72 80   80/  3/  4 1022.3R
LEWISETTA VA     1200   77 79     CALM     1022.1R
RAPPAHANNOCK LGT 1200           80/  8/  9 1022.6R
STINGRAY PT      1200   76      80/  6/  8 1021.1R
YORK RVR RNG VA  1200   76     100/  7/  9 1021.2S
YORKTOWN VA      1200   76 80   80/  8/  9 1021.5R
JAMESTOWN VA     1200   73     100/  2/  6   N/A
DOMINION TERM VA 1200   76      80/  7/ 11 1021.8S
KIPTOPEKE VA     1200      79   90/  6/ 10   N/A
CHES BAY BRIDGE  1200   74 77   50/ 11/ 12 1021.1R
CAPE HENRY VA    1200   75      60/  9/ 10 1020.5R
WILLOUBY STN VA  1200           80/  9/ 10 1021.0S
S CRANEY ISL VA  1200           50/  7/  9 1021.7R
CAPE HENRY BUOY  1200      75                N/A     2/ 6
1ST LANDING BUOY 1200   75      70/ 10/ 10 1021.3R
CAPE CHARLES BUO 1200      75                N/A     2/ 8
OFFSHORE WE BUOY 1200      76                N/A     3/ 8
64NM E OF VA BCH 1200   76 77   70/  8/ 10 1021.4R   3/ 8   3/ 8
DUCK PIER NC     1200   76 74   90/ 11/ 13 1020.5R
44056 DUCK FRF   1200                        N/A     2/ 8
OREGON INLET NC  1200   76 77   80/  7/ 10 1021.0R
HATTERAS NC      1200   75 80  100/  7/ 10 1020.8R
DIAMOND SHLS NC  1200          VRB  8/ 10  1020.9R   3/ 8   3/ 8
CAPE LOOKOUT NC  1100   78      CALM  /  1 1019.7R
$$



USA.gov is the U.S. government's official web portal to all federal, state and local government web resources and services.